Litchfield, MN

6:20 AM CDT on June 27, 2017 (GMT -0500)
Litchfield Municipal

Weather History for KLJF - August, 2012

Change the Weather History Date:

Tuesday, August 7, 2012

  Actual Average Record
Temperature  
Mean Temperature 75 °F -  
Max Temperature 86 °F 82 °F 97 °F (1983)
Min Temperature 64 °F 60 °F 6 °F (1999)
Cooling Degree Days 10    
Growing Degree Days 25 (Base 50)    
Moisture  
Dew Point 61 °F    
Average Humidity 68    
Maximum Humidity 100    
Minimum Humidity 33    
Precipitation  
Precipitation 0.00 in - - ()
Sea Level Pressure  
Sea Level Pressure 30.01 in    
Wind  
Wind Speed 2 mph (NNE)    
Max Wind Speed 9 mph    
Max Gust Speed -    
Visibility 10 miles    
Events      
Averages and records for this station are not official NWS values.
T = Trace of Precipitation, MM = Missing Value Source: NWS Daily Summary

Daily Weather History Graph

Daily Weather History Graph

Search for Another Location

Airport or City:

Trip Planner

Search our weather history database for the weather conditions in past years. The results will help you decide how hot, cold, wet, or windy it might be!

Date:

Astronomy

Aug. 07, 2012 Rise Set
Actual Time 6:10 AM CDT 8:36 PM CDT
Civil Twilight 5:37 AM CDT 9:08 PM CDT
Nautical Twilight 4:56 AM CDT 9:49 PM CDT
Astronomical Twilight 4:09 AM CDT 10:35 PM CDT
Moon 10:55 PM CDT (8/7) 12:19 PM CDT (8/7)
Length of Visible Light 15h 31m
Length of Day
14h 25m
Waning Gibbous, 69% of the Moon is Illuminated
Aug 7
Waning Gibbous
Aug 9
Last Quarter
Aug 17
New
Aug 24
First Quarter
Aug 31
Full

Hourly Weather History & Observations

Time (CDT) Temp. Heat Index Dew Point Humidity Pressure Visibility Wind Dir Wind Speed Gust Speed Precip Events Conditions
12:13 AM 68.0 °F - 66.2 °F 94% 29.96 in 10.0 mi Calm Calm - N/A   Scattered Clouds
12:33 AM 66.2 °F - 64.4 °F 94% 29.96 in 10.0 mi Calm Calm - N/A   Scattered Clouds
12:53 AM 66.2 °F - 64.4 °F 94% 29.96 in 10.0 mi Calm Calm - N/A   Scattered Clouds
1:13 AM 66.2 °F - 64.4 °F 94% 29.96 in 10.0 mi Calm Calm - N/A   Clear
1:33 AM 66.2 °F - 64.4 °F 94% 29.96 in 10.0 mi Calm Calm - N/A   Clear
1:53 AM 66.2 °F - 64.4 °F 94% 29.96 in 10.0 mi Calm Calm - N/A   Clear
2:13 AM 66.2 °F - 64.4 °F 94% 29.96 in 7.0 mi Calm Calm - N/A   Clear
2:33 AM 66.2 °F - 64.4 °F 94% 29.96 in 7.0 mi Calm Calm - N/A   Clear
2:53 AM 66.2 °F - 64.4 °F 94% 29.97 in 10.0 mi Calm Calm - N/A   Clear
3:13 AM 66.2 °F - 64.4 °F 94% 29.97 in 10.0 mi Calm Calm - N/A   Clear
3:33 AM 66.2 °F - 66.2 °F 100% 29.97 in 10.0 mi Calm Calm - N/A   Clear
3:53 AM 66.2 °F - 64.4 °F 94% 29.97 in 10.0 mi Calm Calm - N/A   Clear
4:13 AM 64.4 °F - 64.4 °F 100% 29.98 in 10.0 mi NNW 4.6 mph - N/A   Clear
4:33 AM 66.2 °F - 64.4 °F 94% 29.98 in 10.0 mi NNW 4.6 mph - N/A   Clear
4:53 AM 66.2 °F - 66.2 °F 100% 29.98 in 10.0 mi NW 3.5 mph - N/A   Clear
5:13 AM 66.2 °F - 66.2 °F 100% 29.98 in 10.0 mi Calm Calm - N/A   Clear
5:33 AM 64.4 °F - 64.4 °F 100% 29.98 in 10.0 mi North 5.8 mph - N/A   Clear
5:53 AM 64.4 °F - 64.4 °F 100% 29.99 in 10.0 mi North 3.5 mph - N/A   Clear
6:13 AM 64.4 °F - 64.4 °F 100% 29.99 in 10.0 mi North 3.5 mph - N/A   Scattered Clouds
6:33 AM 64.4 °F - 64.4 °F 100% 29.99 in 10.0 mi NNW 3.5 mph - N/A   Clear
6:53 AM 66.2 °F - 66.2 °F 100% 30.00 in 10.0 mi North 4.6 mph - N/A   Clear
7:13 AM 69.8 °F - 68.0 °F 94% 30.00 in 10.0 mi Calm Calm - N/A   Clear
7:33 AM 69.8 °F - 69.8 °F 100% 30.00 in 10.0 mi North 4.6 mph - N/A   Clear
7:53 AM 69.8 °F - 69.8 °F 100% 30.00 in 10.0 mi NNE 4.6 mph - N/A   Clear
8:13 AM 69.8 °F - 69.8 °F 100% 30.01 in 10.0 mi NNE 3.5 mph - N/A   Clear
8:33 AM 71.6 °F - 69.8 °F 94% 30.01 in 10.0 mi NNE 4.6 mph - N/A   Clear
8:53 AM 71.6 °F - 69.8 °F 94% 30.01 in 10.0 mi NNE 5.8 mph - N/A   Clear
9:13 AM 73.4 °F - 71.6 °F 94% 30.02 in 10.0 mi NNE 3.5 mph - N/A   Clear
9:33 AM 77.0 °F - 75.2 °F 94% 30.02 in 10.0 mi NE 3.5 mph - N/A   Clear
9:53 AM 77.0 °F - 71.6 °F 83% 30.02 in 10.0 mi NE 4.6 mph - N/A   Clear
10:13 AM 77.0 °F - 71.6 °F 83% 30.03 in 10.0 mi NE 3.5 mph - N/A   Clear
10:33 AM 78.8 °F - 66.2 °F 65% 30.03 in 10.0 mi NNE 5.8 mph - N/A   Clear
11:13 AM 80.6 °F 81.5 °F 60.8 °F 51% 30.04 in 10.0 mi NNE 6.9 mph - N/A   Clear
11:34 AM 80.6 °F 80.8 °F 57.2 °F 45% 30.04 in 10.0 mi ENE 6.9 mph - N/A   Clear
11:53 AM 80.6 °F 80.5 °F 55.4 °F 42% 30.04 in 10.0 mi NNE 6.9 mph - N/A   Clear
12:13 PM 82.4 °F 81.7 °F 55.4 °F 39% 30.04 in 10.0 mi ENE 5.8 mph - N/A   Clear
12:33 PM 82.4 °F 82.0 °F 57.2 °F 42% 30.03 in 10.0 mi ENE 6.9 mph - N/A   Clear
12:53 PM 82.4 °F 82.0 °F 57.2 °F 42% 30.03 in 10.0 mi East 4.6 mph - N/A   Clear
1:13 PM 84.2 °F 83.5 °F 57.2 °F 40% 30.03 in 10.0 mi NNE 6.9 mph - N/A   Clear
1:33 PM 84.2 °F 83.5 °F 57.2 °F 40% 30.03 in 10.0 mi NE 5.8 mph - N/A   Clear
1:53 PM 84.2 °F 83.0 °F 55.4 °F 37% 30.02 in 10.0 mi NE 3.5 mph - N/A   Clear
2:13 PM 84.2 °F 83.5 °F 57.2 °F 40% 30.02 in 10.0 mi NNE 6.9 mph - N/A   Clear
2:33 PM 84.2 °F 83.0 °F 55.4 °F 37% 30.02 in 10.0 mi North 8.1 mph - N/A   Clear
2:53 PM 84.2 °F 83.0 °F 55.4 °F 37% 30.01 in 10.0 mi North 6.9 mph - N/A   Clear
3:13 PM 84.2 °F 83.0 °F 55.4 °F 37% 30.01 in 10.0 mi North 3.5 mph - N/A   Clear
3:33 PM 86.0 °F 84.5 °F 55.4 °F 35% 30.02 in 10.0 mi NNE 6.9 mph - N/A   Clear
3:53 PM 84.2 °F 83.0 °F 55.4 °F 37% 30.02 in 10.0 mi North 9.2 mph - N/A   Clear
4:13 PM 84.2 °F 83.0 °F 55.4 °F 37% 30.01 in 10.0 mi NNE 8.1 mph - N/A   Clear
4:33 PM 86.0 °F 84.5 °F 55.4 °F 35% 30.01 in 10.0 mi ENE 3.5 mph - N/A   Clear
4:53 PM 86.0 °F 84.2 °F 53.6 °F 33% 30.00 in 10.0 mi NNE 5.8 mph - N/A   Clear
5:13 PM 86.0 °F 84.2 °F 53.6 °F 33% 30.01 in 10.0 mi North 6.9 mph - N/A   Clear
5:33 PM 86.0 °F 84.2 °F 53.6 °F 33% 30.01 in 10.0 mi ENE 3.5 mph - N/A   Clear
5:53 PM 86.0 °F 84.2 °F 53.6 °F 33% 30.01 in 10.0 mi North 5.8 mph - N/A   Clear
6:13 PM 86.0 °F 84.2 °F 53.6 °F 33% 30.01 in 10.0 mi NNE 5.8 mph - N/A   Clear
6:33 PM 84.2 °F 83.0 °F 55.4 °F 37% 30.01 in 10.0 mi NNE 3.5 mph - N/A   Clear
6:53 PM 82.4 °F 81.7 °F 55.4 °F 39% 30.01 in 10.0 mi NNE 3.5 mph - N/A   Clear
7:13 PM 80.6 °F 80.3 °F 53.6 °F 39% 30.02 in 10.0 mi Calm Calm - N/A   Clear
7:53 PM 75.2 °F - 57.2 °F 53% 30.02 in 10.0 mi Calm Calm - N/A   Clear
8:11 PM 75.2 °F - 57.2 °F 53% 30.02 in 10.0 mi Calm Calm - N/A   Clear
8:33 PM 71.6 °F - 55.4 °F 57% 30.02 in 10.0 mi Calm Calm - N/A   Clear
8:53 PM 71.6 °F - 53.6 °F 53% 30.02 in 10.0 mi Calm Calm - N/A   Clear
9:12 PM 69.8 °F - 53.6 °F 56% 30.02 in 10.0 mi Calm Calm - N/A   Clear
9:33 PM 69.8 °F - 55.4 °F 60% 30.02 in 10.0 mi Calm Calm - N/A   Clear
9:53 PM 68.0 °F - 55.4 °F 64% 30.03 in 10.0 mi Calm Calm - N/A   Scattered Clouds
10:12 PM 68.0 °F - 55.4 °F 64% 30.03 in 10.0 mi Calm Calm - N/A   Scattered Clouds
10:33 PM 66.2 °F - 55.4 °F 68% 30.03 in 10.0 mi East 3.5 mph - N/A   Clear
10:53 PM 66.2 °F - 51.8 °F 60% 30.02 in 10.0 mi East 3.5 mph - N/A   Clear
11:12 PM 66.2 °F - 55.4 °F 68% 30.02 in 10.0 mi Calm Calm - N/A   Clear
11:33 PM 66.2 °F - 55.4 °F 68% 30.03 in 10.0 mi Calm Calm - N/A   Clear